QZS-1R

Last updated on Tue Jan 28 2025 00:02:43 GMT+0000 (Coordinated Universal Time)

1 49336U 21096A 25027.49586074 -.00000266 00000+0 00000+0 0 9995 2 49336 36.4090 87.1392 0760333 272.1965 78.1859 1.00245711 11936
UTC large
Height (km)
Speed (km/s)
/
Latitude / Longitude
Inclination (degrees)
Orbital Period (minutes)
Azimuth
Elevation
Range (km)
Doppler Factor

Next 0 passes for location: London (51.5072 / 0.1276)

Sorry there are no passes over London.
QZS-1R